Location: ????????
(38.4362°N, 22.8767°E)
Time: 16:53:46
(UTC+00:00)

ACS3 Solar Sail - Pass Details

Date: 03 July 2024
Orbit: 992 x 1023 km, 97.4° (Epoch: 14 July)

Event Time Altitude Azimuth Distance (km) Brightness Sun altitude
Exits shadow 18:51:45 12° 124° (SE) 2,618 6.4 -9.7°
Maximum altitude 18:56:36 31° 68° (ENE) 1,684 5.8 -10.5°
Drops below altitude 10° 19:01:53 10° 9° (N) 2,764 7.6 -11.3°
Sets 19:04:39 0° 360° (N) 3,717 8.5 -11.7°
